This demonstration page uses our WeatherBlox Daily Observations layout. Learn more.

Left ArrowRight Arrow

Hourly Observations for November 3, 2015

Temp ( °F °C ) Dew Point ( °F °C ) Humidity (%) Winds ( mph kmh ) Pressure ( in mb ) Visibility ( mi km ) Precip ( " mm )
12:15 am 00:15 Cloudy with Mist and Fog 66 18.9 64 17.8 93 93 NE 6 9 30.00 1016 3 4 0.00 0.00
12:27 am 00:27 Cloudy with Mist and Fog 66 18.9 64 17.8 93 93 NE 6 9 30.00 1016 3 5 0.00 0.00
12:53 am 00:53 Cloudy with Mist and Fog 65 18.3 63 17.2 93 93 NNE 7 11 29.98 1015 6 10 0.00 0.00
1:53 am 01:53 Cloudy with Mist and Fog 65 18.3 63 17.2 93 93 NE 9 15 29.98 1015 6 10 0.00 0.00
2:53 am 02:53 Cloudy 65 18.3 63 17.2 93 93 NE 5 7 29.98 1015 9 14 0.00 0.00
3:17 am 03:17 Cloudy 65 18.3 63 17.2 93 93 ENE 9 15 30.00 1016 10 16 0.00 0.00
3:53 am 03:53 Cloudy 65 18.3 63 17.2 93 93 NE 5 7 29.98 1015 10 16 0.00 0.00
4:25 am 04:25 Cloudy with Mist and Fog 65 18.3 63 17.2 93 93 NE 5 7 30.00 1016 6 10 0.00 0.00
4:53 am 04:53 Cloudy with Mist and Fog 65 18.3 63 17.2 93 93 ENE 6 9 30.00 1016 4 6 0.00 0.00
5:51 am 05:51 Cloudy 64 18 63 17 94 94 ENE 6 9 30.03 1017 10 16 0.00 0.00
5:53 am 05:53 Cloudy 65 18.3 63 17.2 93 93 ENE 6 9 30.01 1016 10 16 0.00 0.00
6:53 am 06:53 Cloudy 65 18.3 63 17.2 93 93 NE 6 9 30.03 1017 10 16 0.00 0.00
7:53 am 07:53 Cloudy 65 18.3 63 17.2 93 93 ENE 7 11 30.05 1018 10 16 0.00 0.00
8:53 am 08:53 Cloudy 66 18.9 63 17.2 90 90 ENE 9 15 30.07 1018 10 16 0.00 0.00
9:53 am 09:53 Cloudy 66 18.9 63 17.2 90 90 NE 9 15 30.09 1019 10 16 0.00 0.00
10:53 am 10:53 Cloudy 67 19.4 63 17.2 87 87 NE 9 15 30.09 1019 10 16 0.00 0.00
11:53 am 11:53 Cloudy 67 19.4 62 16.7 84 84 ENE 8 13 30.09 1019 10 16 0.00 0.00
12:53 pm 12:53 Cloudy 67 19.4 62 16.7 84 84 ENE 8 13 30.08 1019 10 16 0.00 0.00
1:53 pm 13:53 Cloudy 68 20 62 16.7 81 81 ENE 8 13 30.07 1018 10 16 0.00 0.00
2:01 pm 14:01 Cloudy 67 19.4 62 16.7 84 84 ENE 8 13 30.09 1019 10 16 0.00 0.00
2:53 pm 14:53 Cloudy 67 19.4 62 16.7 84 84 ENE 8 13 30.07 1018 10 16 0.00 0.00
3:53 pm 15:53 Cloudy 67 19.4 62 16.7 84 84 ENE 7 11 30.08 1019 10 16 0.00 0.00
4:53 pm 16:53 Cloudy 65 18.3 62 16.7 90 90 ENE 6 9 30.10 1019 8 13 0.00 0.00
5:53 pm 17:53 Cloudy with Mist and Fog 65 18.3 62 16.7 90 90 ENE 7 11 30.11 1020 6 10 0.00 0.00
6:53 pm 18:53 Cloudy 65 18.3 62 16.7 90 90 E 7 11 30.12 1020 8 13 0.00 0.00
7:53 pm 19:53 Cloudy 65 18.3 62 16.7 90 90 ENE 5 7 30.13 1020 9 14 0.00 0.00
8:53 pm 20:53 Cloudy 65 18.3 61 16.1 87 87 ENE 9 15 30.14 1021 10 16 0.00 0.00
9:53 pm 21:53 Cloudy 65 18.3 62 16.7 90 90 ENE 6 9 30.15 1021 9 14 0.00 0.00
10:53 pm 22:53 Cloudy 65 18.3 62 16.7 90 90 ENE 5 7 30.15 1021 10 16 0.00 0.00
11:53 pm 23:53 Cloudy 65 18.3 61 16.1 87 87 ENE 7 11 30.14 1021 10 16 0.00 0.00

Powered by AerisWeather